Simultaneous Nadir Overpasses (SNOs) Predictions

Prediction of SNOs between GOES-17 and METOP-A Satellite Orbit:

Table of predicted SNOs for the next 14.0 days since TLE Epoch: 10/31/2020
Index Date Time (GOES-17) GOES-17 Lat,Lon METOP-A Lat,Lon Distance(km) Time Diff (sec)
1 10/31/2020 17:34:37 -0.05,-137.21 -0.27,-136.10 126.31 80
2 11/02/2020 05:53:38 0.05,-137.20 -0.71,-140.74 402.64 80
3 11/03/2020 05:32:58 0.04,-137.20 0.38,-135.76 163.91 80
4 11/04/2020 17:49:10 -0.04,-137.19 0.68,-140.35 360.74 80
5 11/05/2020 17:31:10 -0.04,-137.18 -0.41,-135.37 205.33 80
6 11/07/2020 05:47:30 0.03,-137.15 -0.62,-140.00 325.11 80
7 11/08/2020 05:29:31 0.03,-137.14 0.48,-135.02 240.48 80
8 11/09/2020 17:45:43 -0.03,-137.12 0.53,-139.62 285.50 80
9 11/10/2020 17:27:44 -0.02,-137.10 -0.57,-134.65 279.77 80
10 11/12/2020 05:44:04 0.02,-137.07 -0.46,-139.28 251.69 80
11 11/13/2020 05:26:05 0.02,-137.04 0.64,-134.30 313.19 80
